This demonstration page uses our WeatherBlox Daily Observations layout. Learn more.

Left ArrowRight Arrow

44.8408, -93.29828

Hourly Observations for May 14, 2015

Temp ( °F °C ) Dew Point ( °F °C ) Humidity (%) Winds ( mph kmh ) Pressure ( in mb ) Visibility ( mi km ) Precip ( " mm )
12:53 am 00:53 Cloudy 57 13.9 39 3.9 51 51 SE 12 19 30.22 1023 10 16 0.00 0.00
1:53 am 01:53 Cloudy 56 13.3 40 4.4 55 55 SE 12 19 30.20 1023 10 16 0.00 0.00
2:53 am 02:53 Cloudy 55 12.8 40 4.4 57 57 SE 10 17 30.19 1023 10 16 0.00 0.00
3:53 am 03:53 Cloudy 55 12.8 40 4.4 57 57 SE 10 17 30.19 1022 10 16 0.00 0.00
4:53 am 04:53 Cloudy 54 12.2 41 5 62 62 SE 9 15 30.18 1022 10 16 0.00 0.00
5:53 am 05:53 Cloudy 54 12.2 41 5 62 62 SE 14 22 30.18 1022 10 16 0.00 0.00
6:53 am 06:53 Cloudy 53 11.7 42 5.6 66 66 SE 13 20 30.18 1022 10 16 0.00 0.00
7:53 am 07:53 Cloudy with Light Rain 51 10.6 45 7.2 80 80 ESE 17 28 30.17 1022 9 14 0.01 0.25
8:53 am 08:53 Cloudy 51 10.6 44 6.7 77 77 ESE 15 24 30.16 1021 10 16 0.00 0.03
9:53 am 09:53 Cloudy 53 11.7 44 6.7 72 72 ESE 12 19 30.15 1021 10 16 0.00 0.03
10:53 am 10:53 Cloudy 52 11.1 45 7.2 77 77 ESE 13 20 30.11 1020 10 16 0.01 0.25
11:53 am 11:53 Cloudy with Light Rain 52 11.1 45 7.2 77 77 ESE 20 31 30.10 1019 10 16 0.00 0.03
12:45 pm 12:45 Cloudy with Light Rain 51 10.6 46 7.8 83 83 SE 16 26 30.09 1019 8 13 0.01 0.25
12:53 pm 12:53 Cloudy with Light Rain 51 10.6 47 8.3 86 86 ESE 17 28 30.08 1019 8 13 0.01 0.25
1:53 pm 13:53 Cloudy with Light Rain 52 11.1 48 8.9 86 86 ESE 17 28 30.02 1017 8 13 0.01 0.25
2:01 pm 14:01 Cloudy with Light Rain 52 11.1 48 8.9 86 86 ESE 18 30 30.00 1016 8 13 0.00 0.03
2:17 pm 14:17 Cloudy with Light Rain 52 11.1 49 9.4 89 89 ESE 17 28 30.00 1016 8 13 0.01 0.25
2:53 pm 14:53 Cloudy with Light Rain 52 11.1 49 9.4 89 89 ESE 16 26 30.00 1016 7 11 0.02 0.51
3:53 pm 15:53 Cloudy with Light Rain 53 11.7 50 10 89 89 ESE 15 24 29.97 1015 6 10 0.03 0.76
4:23 pm 16:23 Cloudy with Light Rain 53 11.7 51 10.6 93 93 ESE 10 17 29.97 1015 6 10 0.03 0.76
4:51 pm 16:51 Cloudy with Light Rain 54 12 52 11 94 94 ESE 14 22 29.97 1015 6 10 0.06 1.52
4:53 pm 16:53 Cloudy with Light Rain 53 11.7 51 10.6 93 93 ESE 13 20 29.96 1015 6 10 0.06 1.52
5:12 pm 17:12 Cloudy with Light Rain 54 12 52 11 94 94 ESE 13 20 29.97 1015 6 10 0.00 0.00
5:53 pm 17:53 Cloudy with Light Rain 53 11.7 51 10.6 93 93 ESE 13 20 29.94 1014 6 10 0.04 1.02
6:27 pm 18:27 Cloudy with Light Rain 53 11.7 51 10.6 93 93 ESE 13 20 29.97 1015 5 8 0.05 1.27
6:36 pm 18:36 Cloudy with Light Rain 54 12 52 11 94 94 ESE 10 17 29.94 1014 5 8 0.00 0.00
6:53 pm 18:53 Cloudy with Light Rain 53 11.7 52 11.1 96 96 ESE 9 15 29.92 1013 5 8 0.07 1.78
7:53 pm 19:53 Cloudy with Light Rain 54 12.2 52 11.1 93 93 ESE 8 13 29.91 1013 4 6 0.05 1.27
8:53 pm 20:53 Cloudy with Light Rain 54 12.2 53 11.7 97 97 ESE 9 15 29.89 1012 4 6 0.02 0.51
9:53 pm 21:53 Cloudy with Mist and Fog 54 12.2 53 11.7 97 97 SE 9 15 29.89 1012 3 5 0.00 0.03
10:53 pm 22:53 Cloudy with Mist and Fog 54 12.2 53 11.7 97 97 SE 5 7 29.89 1012 3 5 0.01 0.25
11:30 pm 23:30 Cloudy with Mist and Fog 54 12.2 53 11.7 97 97 SE 3 6 29.91 1013 3 4 0.00 0.00
11:39 pm 23:39 Cloudy with Mist and Fog 54 12.2 53 11.7 97 97 SE 3 6 29.91 1013 3 5 0.00 0.00
11:53 pm 23:53 Cloudy with Mist and Fog 54 12.2 54 12.2 100 100 SE 3 6 29.88 1012 4 6 0.00 0.00

Powered by AerisWeather